Location: �chenoz-la-M�line
(47.6009°N, 6.1354°E)
Time: 13:03:05
(UTC+00:00)

Cosmos 1943 Rocket - Pass Details

Date: 27 January 2021
Orbit: 810 x 845 km, 71.0° (Epoch: 02 March)

Event Time Altitude Azimuth Distance (km) Brightness Sun altitude
Exits shadow 04:51:12 16° 341° (NNW) 2,083 4.0 -23.0°
Maximum altitude 04:55:44 59° 58° (ENE) 974 2.7 -22.2°
Drops below altitude 10° 05:01:19 10° 138° (SE) 2,463 5.2 -21.3°
Sets 05:03:48 0° 142° (SE) 3,393 6.0 -20.9°
